Weather History for Sparta, IL

Change the Weather History Date:

Wednesday, January 16, 2013

  Actual Average (KBLV) Record (KBLV)
Temperature  
Mean Temperature 32 °F -  
Max Temperature 42 °F 39 °F 68 °F (1990)
Min Temperature 21 °F 21 °F -8 °F (1977)
Degree Days  
Heating Degree Days 34    
Moisture  
Dew Point 21 °F    
Average Humidity 72    
Maximum Humidity 100    
Minimum Humidity 19    
Precipitation  
Precipitation 0.00 in - - ()
Sea Level Pressure  
Sea Level Pressure 30.12 in    
Wind  
Wind Speed 4 mph (WSW)    
Max Wind Speed 8 mph    
Max Gust Speed -    
Visibility 10 miles    
Events      
Averages and records for this station are not official NWS values.
T = Trace of Precipitation, MM = Missing Value Source: NWS Daily Summary

Daily Weather History Graph

Daily Weather History Graph

Search for Another Location

Airport:

Trip Planner

Search our weather history database for the weather conditions in past years. The results will help you decide how hot, cold, wet, or windy it might be!

Date:

Astronomy

Jan. 16, 2013 Rise Set
Actual Time 7:13 AM CST 5:04 PM CST
Civil Twilight 6:44 AM CST 5:33 PM CST
Nautical Twilight 6:12 AM CST 6:05 PM CST
Astronomical Twilight 5:40 AM CST 6:37 PM CST
Moon 9:55 AM CST (1/16) 10:49 PM CST (1/16)
Length of Visible Light 10h 48m
Length of Day
9h 50m
Waxing Crescent, 28% of the Moon is Illuminated
Jan 16
Waxing Crescent
Jan 18
First Quarter
Jan 26
Full
Feb 3
Last Quarter
Feb 10
New

Hourly Weather History & Observations

Time (CST) Temp. Windchill Dew Point Humidity Pressure Visibility Wind Dir Wind Speed Gust Speed Precip Events Conditions
12:15 AM 28.4 °F 23.3 °F 28.4 °F 100% 30.14 in 10.0 mi NW 4.6 mph - N/A   Overcast
12:35 AM 28.4 °F 24.6 °F 28.4 °F 100% 30.14 in 10.0 mi NW 3.5 mph - N/A   Overcast
12:55 AM 28.4 °F 23.3 °F 28.4 °F 100% 30.14 in 10.0 mi WNW 4.6 mph - N/A   Overcast
1:15 AM 28.4 °F 22.2 °F 28.4 °F 100% 30.14 in 10.0 mi NW 5.8 mph - N/A   Overcast
1:35 AM 28.4 °F 22.2 °F 28.4 °F 100% 30.15 in 10.0 mi NW 5.8 mph - N/A   Overcast
1:55 AM 28.4 °F 23.3 °F 28.4 °F 100% 30.16 in 10.0 mi WNW 4.6 mph - N/A   Overcast
2:15 AM 28.4 °F 22.2 °F 28.4 °F 100% 30.15 in 10.0 mi WNW 5.8 mph - N/A   Overcast
2:35 AM 26.6 °F 22.6 °F 26.6 °F 100% 30.15 in 10.0 mi WNW 3.5 mph - N/A   Mostly Cloudy
2:55 AM 26.6 °F 22.6 °F 26.6 °F 100% 30.14 in 10.0 mi WNW 3.5 mph - N/A   Clear
3:15 AM 26.6 °F 22.6 °F 26.6 °F 100% 30.13 in 10.0 mi NW 3.5 mph - N/A   Clear
3:35 AM 26.6 °F 21.2 °F 26.6 °F 100% 30.13 in 10.0 mi NW 4.6 mph - N/A   Scattered Clouds
3:55 AM 26.6 °F 21.2 °F 26.6 °F 100% 30.13 in 10.0 mi WNW 4.6 mph - N/A   Scattered Clouds
4:15 AM 26.6 °F 22.6 °F 26.6 °F 100% 30.13 in 10.0 mi WNW 3.5 mph - N/A   Clear
4:35 AM 24.8 °F 20.5 °F 24.8 °F 100% 30.12 in 10.0 mi WNW 3.5 mph - N/A   Clear
4:55 AM 24.8 °F 19.1 °F 24.8 °F 100% 30.12 in 10.0 mi WNW 4.6 mph - N/A   Clear
5:15 AM 24.8 °F 20.5 °F 24.8 °F 100% 30.12 in 10.0 mi WNW 3.5 mph - N/A   Clear
5:35 AM 24.8 °F 20.5 °F 24.8 °F 100% 30.12 in 10.0 mi WNW 3.5 mph - N/A   Clear
5:55 AM 23.0 °F 18.4 °F 23.0 °F 100% 30.12 in 10.0 mi WNW 3.5 mph - N/A   Clear
6:15 AM 24.8 °F - 24.8 °F 100% 30.14 in 10.0 mi Calm Calm - N/A   Clear
6:35 AM 23.0 °F - 23.0 °F 100% 30.15 in 10.0 mi Calm Calm - N/A   Clear
6:55 AM 23.0 °F - 23.0 °F 100% 30.15 in 10.0 mi Calm Calm - N/A   Clear
7:15 AM 23.0 °F - 23.0 °F 100% 30.14 in 10.0 mi Calm Calm - N/A   Clear
7:35 AM 21.2 °F - 21.2 °F 100% 30.13 in 10.0 mi Calm Calm - N/A   Clear
7:55 AM 23.0 °F 18.4 °F 23.0 °F 100% 30.15 in 10.0 mi West 3.5 mph - N/A   Clear
8:15 AM 24.8 °F 19.1 °F 24.8 °F 100% 30.15 in 10.0 mi West 4.6 mph - N/A   Clear
8:35 AM 24.8 °F 19.1 °F 24.8 °F 100% 30.15 in 10.0 mi West 4.6 mph - N/A   Clear
8:55 AM 26.6 °F 21.2 °F 24.8 °F 93% 30.15 in 10.0 mi West 4.6 mph - N/A   Clear
9:15 AM 26.6 °F 21.2 °F 26.6 °F 100% 30.15 in 10.0 mi West 4.6 mph - N/A   Clear
9:35 AM 28.4 °F 22.2 °F 24.8 °F 86% 30.14 in 10.0 mi West 5.8 mph - N/A   Clear
9:55 AM 28.4 °F 23.3 °F 24.8 °F 86% 30.14 in 10.0 mi West 4.6 mph - N/A   Clear
10:15 AM 30.2 °F 25.4 °F 23.0 °F 75% 30.14 in 10.0 mi WSW 4.6 mph - N/A   Clear
10:35 AM 32.0 °F 27.5 °F 17.6 °F 55% 30.14 in 10.0 mi WSW 4.6 mph - N/A   Clear
10:55 AM 33.8 °F 29.6 °F 19.4 °F 56% 30.12 in 10.0 mi West 4.6 mph - N/A   Clear
11:15 AM 33.8 °F 28.6 °F 12.2 °F 41% 30.11 in 10.0 mi West 5.8 mph - N/A   Clear
11:35 AM 35.6 °F 31.7 °F 15.8 °F 44% 30.10 in 10.0 mi West 4.6 mph - N/A   Clear
11:55 AM 35.6 °F 31.7 °F 12.2 °F 38% 30.09 in 10.0 mi West 4.6 mph - N/A   Clear
12:15 PM 35.6 °F 31.7 °F 12.2 °F 38% 30.09 in 10.0 mi SW 4.6 mph - N/A   Clear
12:35 PM 37.4 °F 32.8 °F 8.6 °F 30% 30.07 in 10.0 mi West 5.8 mph - N/A   Clear
12:55 PM 37.4 °F 33.8 °F 1.4 °F 22% 30.07 in 10.0 mi WSW 4.6 mph - N/A   Clear
1:15 PM 39.2 °F 33.6 °F -0.4 °F 19% 30.06 in 10.0 mi WSW 8.1 mph - N/A   Clear
1:35 PM 39.2 °F 35.9 °F 6.8 °F 26% 30.06 in 10.0 mi SW 4.6 mph - N/A   Clear
1:55 PM 39.2 °F 35.0 °F 8.6 °F 28% 30.05 in 10.0 mi WSW 5.8 mph - N/A   Clear
2:15 PM 39.2 °F 35.0 °F 6.8 °F 26% 30.05 in 10.0 mi West 5.8 mph - N/A   Clear
2:35 PM 41.0 °F 35.8 °F 5.0 °F 23% 30.05 in 10.0 mi WSW 8.1 mph - N/A   Clear
2:55 PM 41.0 °F 38.0 °F 6.8 °F 24% 30.05 in 10.0 mi SW 4.6 mph - N/A   Clear
3:15 PM 41.0 °F 38.0 °F 6.8 °F 24% 30.06 in 10.0 mi WSW 4.6 mph - N/A   Clear
3:35 PM 42.8 °F 41.1 °F 8.6 °F 25% 30.07 in 10.0 mi WSW 3.5 mph - N/A   Clear
3:55 PM 41.0 °F 38.0 °F 6.8 °F 24% 30.07 in 10.0 mi WSW 4.6 mph - N/A   Clear
4:15 PM 39.2 °F 35.0 °F 14.0 °F 36% 30.07 in 10.0 mi South 5.8 mph - N/A   Clear
4:35 PM 39.2 °F 35.9 °F 12.2 °F 33% 30.08 in 10.0 mi South 4.6 mph - N/A   Clear
4:55 PM 39.2 °F 35.9 °F 14.0 °F 36% 30.09 in 10.0 mi South 4.6 mph - N/A   Clear
5:15 PM 37.4 °F 32.8 °F 15.8 °F 41% 30.08 in 10.0 mi South 5.8 mph - N/A   Clear
5:35 PM 35.6 °F 30.7 °F 17.6 °F 48% 30.09 in 10.0 mi South 5.8 mph - N/A   Clear
5:55 PM 35.6 °F 31.7 °F 17.6 °F 48% 30.10 in 10.0 mi South 4.6 mph - N/A   Clear
6:15 PM 35.6 °F 31.7 °F 19.4 °F 52% 30.11 in 10.0 mi South 4.6 mph - N/A   Clear
6:35 PM 33.8 °F 27.7 °F 21.2 °F 60% 30.11 in 10.0 mi South 6.9 mph - N/A   Clear
6:55 PM 33.8 °F 27.7 °F 23.0 °F 65% 30.10 in 10.0 mi South 6.9 mph - N/A   Clear
7:15 PM 33.8 °F 28.6 °F 24.8 °F 70% 30.08 in 10.0 mi SSE 5.8 mph - N/A   Clear
7:35 PM 33.8 °F 27.7 °F 26.6 °F 75% 30.12 in 10.0 mi South 6.9 mph - N/A   Clear
7:55 PM 32.0 °F 26.4 °F 26.6 °F 80% 30.14 in 10.0 mi SSW 5.8 mph - N/A   Scattered Clouds
8:15 PM 32.0 °F 26.4 °F 26.6 °F 80% 30.13 in 10.0 mi SSW 5.8 mph - N/A   Clear
8:35 PM 32.0 °F 26.4 °F 26.6 °F 80% 30.13 in 10.0 mi SSW 5.8 mph - N/A   Mostly Cloudy
8:55 PM 32.0 °F 26.4 °F 26.6 °F 80% 30.13 in 10.0 mi South 5.8 mph - N/A   Overcast
9:15 PM 33.8 °F - 26.6 °F 75% 30.13 in 10.0 mi Calm Calm - N/A   Overcast
9:35 PM 33.8 °F 30.8 °F 28.4 °F 81% 30.12 in 10.0 mi SSW 3.5 mph - N/A   Overcast
9:55 PM 33.8 °F - 28.4 °F 81% 30.12 in 10.0 mi Calm Calm - N/A   Overcast
10:15 PM 33.8 °F - 28.4 °F 81% 30.12 in 10.0 mi Calm Calm - N/A   Unknown
10:35 PM 33.8 °F - 26.6 °F 75% 30.12 in 10.0 mi Calm Calm - N/A   Mostly Cloudy
10:55 PM 32.0 °F - 26.6 °F 80% 30.13 in 10.0 mi Calm Calm - N/A   Scattered Clouds
11:15 PM 33.8 °F - 26.6 °F 75% 30.14 in 10.0 mi Calm Calm - N/A   Clear
11:35 PM 32.0 °F - 26.6 °F 80% 30.14 in 10.0 mi Calm Calm - N/A   Clear
11:55 PM 30.2 °F 26.7 °F 26.6 °F 86% 30.14 in 10.0 mi SSW 3.5 mph - N/A   Clear